User: anonymous   Login
Location: Mactaquac Provincial Park
(45.9573°N, 66.8897°W)
Time: 18:31:40
(UTC-03:00)
Language:

CENTAUR R/B - Orbit

View from above orbital plane
View from above orbital plane
View from above satellite
View from above satellite

Ground track
Ground track

The orbit data is extracted from the following two-line orbital elements,

1 26906U 01040B   17229.92024455 0.00000000  00000-0  00000-0 0    03
2 26906  63.4600 175.1297 0362000 342.0312  17.9688 13.44012174    08
Epoch (UTC): 17 August 2017 22:05:09
Eccentricity: 0.0362000
inclination: 63.4600°
perigee height: 824 km
apogee height: 1365 km
right ascension of ascending node: 175.1297°
argument of perigee: 342.0312°
revolutions per day: 13.44012174
mean anomaly at epoch: 17.9688°
orbit number at epoch: 0

The dashed part of the orbit path shows where the satellite is in the earth's shadow,  

DLR